Regional Weather Roundup
Issued by NWS

Home | Current Version | Previous Version | Text Only | Print | Product List | Glossary Off
Versions: 1 2 3 4 5 6 7 8 9 10 11 12 13 14 15 16 17 18 19 20 21 22 23 24 25 26 27 28 29 30 31 32 33 34 35 36 37 38 39 40 41 42 43 44 45 46 47 48 49 50

000
ASUS43 KBIS 310802
RWRND

NORTH DAKOTA REGIONAL WEATHER ROUNDUP
NATIONAL WEATHER SERVICE BISMARCK ND
300 AM CDT MON AUG 31 2015

NOTE: "FAIR" INDICATES FEW OR NO CLOUDS BELOW 12,000 FEET WITH NO
SIGNIFICANT WEATHER AND/OR OBSTRUCTIONS TO VISIBILITY.


NDZ001>003-009>011-017-310900-
NORTHWEST NORTH DAKOTA

CITY           SKY/WX    TMP DP  RH WIND       PRES   REMARKS
WILLISTON      LGT RAIN  64  58  80 W12       29.73R
MINOT          CLOUDY    65  54  67 SW7       29.70R
MINOT AFB      CLOUDY    64  62  92 CALM      29.69F
$$

NDZ018>021-031>035-040>046-310900-
SOUTHWEST NORTH DAKOTA

CITY           SKY/WX    TMP DP  RH WIND       PRES   REMARKS
BISMARCK       CLOUDY    71  61  70 SE6       29.62S HAZE
DICKINSON      CLOUDY    67  50  54 E10       29.66F
GARRISON         N/A     66  54  65 N14       29.68F
HETTINGER ARPT MOCLDY    67  50  54 N16       29.70F
$$

NDZ004>008-012>016-024-026-027-054-310900-
NORTHEAST NORTH DAKOTA

CITY           SKY/WX    TMP DP  RH WIND       PRES   REMARKS
GRAND FORKS    CLEAR     69  65  86 S14       29.64F
GRND FRKS AFB  CLEAR     69  66  90 S10       29.64F
DEVILS LAKE    PTCLDY    72  64  78 S3        29.62S
$$

NDZ022-023-025-028>030-036>039-047>053-310900-
SOUTHEAST NORTH DAKOTA

CITY           SKY/WX    TMP DP  RH WIND       PRES   REMARKS
FARGO          CLEAR     68  60  75 S16G25    29.69F
JAMESTOWN      CLEAR     68  65  90 S17       29.65F
$$



USA.gov is the U.S. government's official web portal to all federal, state and local government web resources and services.